Bismarck, ND

2:43 AM CST on February 25, 2018 (GMT -0600)
Bismarck Municipal

Weather History for KBIS - March, 2013

Change the Weather History Date:

Thursday, March 21, 2013

  Actual Average Record
Temperature  
Mean Temperature 16 °F 32 °F  
Max Temperature 28 °F 43 °F 78 °F (1910)
Min Temperature 3 °F 21 °F -14 °F (1965)
Degree Days  
Heating Degree Days 49 33  
Month to date heating degree days 915 786  
Since 1 July heating degree days 7224 7217  
Cooling Degree Days 0 0  
Month to date cooling degree days 0 0  
Year to date cooling degree days 0 0  
Moisture  
Dew Point 6 °F    
Average Humidity 63    
Maximum Humidity 88    
Minimum Humidity 38    
Precipitation  
Precipitation 0.00 in 0.03 in 1.80 in (1916)
Month to date precipitation 0.61 0.55  
Year to date precipitation 1.20 1.49  
Snow  
Snow 0.00 in 0.30 in 11.00 in (1894)
Month to date snowfall 3.6 6.5  
Since 1 July snowfall 32.2 44.0  
Snow Depth T in    
Sea Level Pressure  
Sea Level Pressure 30.08 in    
Wind  
Wind Speed 13 mph (East)    
Max Wind Speed 22 mph    
Max Gust Speed 25 mph    
Visibility 10 miles    
Events      
T = Trace of Precipitation, MM = Missing Value Source: NWS Daily Summary

Daily Weather History Graph

Daily Weather History Graph

Search for Another Location

Airport or City:

Trip Planner

Search our weather history database for the weather conditions in past years. The results will help you decide how hot, cold, wet, or windy it might be!

Date:

Astronomy

Mar. 21, 2013 Rise Set
Actual Time 7:43 AM CDT 7:57 PM CDT
Civil Twilight 7:13 AM CDT 8:27 PM CDT
Nautical Twilight 6:37 AM CDT 9:03 PM CDT
Astronomical Twilight 6:00 AM CDT 9:40 PM CDT
Moon 2:11 PM CDT (3/21) 4:24 AM CDT (3/21)
Length of Visible Light 13h 14m
Length of Day
12h 14m
Waxing Gibbous, 69% of the Moon is Illuminated
Mar 21
Waxing Gibbous
Mar 27
Full
Apr 2
Last Quarter
Apr 10
New
Apr 18
First Quarter

Hourly Weather History & Observations

Time (CDT) Temp. Windchill Dew Point Humidity Pressure Visibility Wind Dir Wind Speed Gust Speed Precip Events Conditions
12:52 AM 9.0 °F -5.1 °F 3.9 °F 80% 30.15 in 10.0 mi East 10.4 mph - N/A   Clear
1:52 AM 8.1 °F -4.3 °F 3.9 °F 83% 30.14 in 10.0 mi East 8.1 mph - N/A   Clear
2:52 AM 7.0 °F -6.6 °F 3.0 °F 84% 30.13 in 10.0 mi East 9.2 mph - N/A   Clear
3:52 AM 7.0 °F -6.6 °F 1.9 °F 80% 30.12 in 10.0 mi ESE 9.2 mph - N/A   Clear
4:52 AM 6.1 °F -8.7 °F 1.0 °F 80% 30.12 in 10.0 mi East 10.4 mph - N/A   Clear
5:52 AM 3.9 °F -10.4 °F -0.0 °F 84% 30.11 in 10.0 mi East 9.2 mph - N/A   Clear
6:52 AM 3.0 °F -12.5 °F -2.0 °F 80% 30.11 in 10.0 mi East 10.4 mph - N/A   Clear
7:52 AM 3.0 °F -12.5 °F -2.0 °F 80% 30.11 in 10.0 mi East 10.4 mph - N/A   Clear
8:52 AM 6.1 °F -7.8 °F -0.0 °F 76% 30.10 in 10.0 mi East 9.2 mph - N/A   Clear
9:52 AM 10.0 °F -4.5 °F 1.9 °F 70% 30.09 in 10.0 mi ESE 11.5 mph - N/A   Clear
10:52 AM 15.1 °F -0.1 °F 3.0 °F 59% 30.08 in 10.0 mi ESE 15.0 mph - N/A   Partly Cloudy
11:52 AM 19.4 °F 5.0 °F 3.2 °F 49% 29.96 in 10.0 mi East 16.1 mph - N/A   Mostly Cloudy
12:52 PM 21.0 °F 9.3 °F 5.0 °F 50% 30.05 in 10.0 mi ESE 11.5 mph - N/A   Clear
1:52 PM 26.1 °F 13.6 °F 5.0 °F 41% 30.03 in 10.0 mi ESE 16.1 mph - N/A   Clear
2:52 PM 25.0 °F 11.3 °F 14.0 °F 63% 30.02 in 10.0 mi ENE 18.4 mph - N/A   Clear
3:52 PM 25.0 °F 12.2 °F 12.9 °F 60% 30.02 in 10.0 mi East 16.1 mph 25.3 mph N/A   Overcast
4:52 PM 25.0 °F 11.7 °F 14.0 °F 63% 30.02 in 10.0 mi East 17.3 mph - N/A   Partly Cloudy
5:52 PM 24.1 °F 10.1 °F 12.0 °F 60% 30.04 in 10.0 mi East 18.4 mph - N/A   Scattered Clouds
6:52 PM 21.9 °F 8.7 °F 12.9 °F 68% 30.05 in 10.0 mi East 15.0 mph - N/A   Partly Cloudy
7:13 PM 21.0 °F 7.1 °F 12.0 °F 68% 29.95 in 10.0 mi East 16.1 mph - N/A   Mostly Cloudy
7:33 PM 19.0 °F 4.5 °F 12.0 °F 74% 29.96 in 10.0 mi East 16.1 mph - N/A   Scattered Clouds
7:52 PM 18.0 °F 3.1 °F 12.0 °F 78% 30.08 in 10.0 mi East 16.1 mph - N/A   Partly Cloudy
8:52 PM 17.1 °F 2.0 °F 10.9 °F 77% 30.10 in 10.0 mi East 16.1 mph - N/A   Clear
9:52 PM 16.0 °F 1.7 °F 10.0 °F 77% 30.12 in 10.0 mi East 13.8 mph - N/A   Overcast
10:52 PM 15.1 °F 1.8 °F 9.0 °F 77% 30.12 in 10.0 mi East 11.5 mph - N/A   Overcast
11:52 PM 15.1 °F 1.1 °F 8.1 °F 74% 30.11 in 10.0 mi East 12.7 mph - N/A   Overcast